| time (UTC) | temp C | wind direction | speed KPH | gust KPH | rain 1hr cm | rain 24hr cm | rain mn cm | humidity % | barometer mb |
| 20260504050238 | 17 | 45 | 0.0 | 6.4 | 0.00 | 0.00 | 0.00 | 69 | 1014.3 |
| 20260504045258 | 17 | 9 | 0.0 | 4.8 | 0.00 | 0.00 | 0.00 | 68 | 1014.3 |
| 20260504043142 | 18 | 328 | 0.0 | 8.0 | 0.00 | 0.00 | 0.00 | 67 | 1014.5 |
| 20260504042155 | 18 | 351 | 0.0 | 9.7 | 0.00 | 0.00 | 0.00 | 66 | 1014.6 |
| 20260504041127 | 18 | 315 | 0.0 | 9.7 | 0.00 | 0.00 | 0.00 | 65 | 1014.7 |
| 20260504040123 | 18 | 347 | 0.0 | 8.0 | 0.00 | 0.00 | 0.00 | 63 | 1014.7 |
| 20260504035128 | 18 | 42 | 0.0 | 8.0 | 0.00 | 0.00 | 0.00 | 62 | 1014.7 |
| 20260504033037 | 17 | 338 | 0.0 | 0.0 | 0.00 | 0.00 | 0.00 | 63 | 1014.4 |
| 20260504032022 | 17 | 349 | 0.0 | 0.0 | 0.00 | 0.00 | 0.00 | 64 | 1014.5 |
| 20260504030949 | 18 | 349 | 0.0 | 0.0 | 0.00 | 0.00 | 0.00 | 63 | 1014.5 |
| 20260504025947 | 18 | 349 | 0.0 | 0.0 | 0.00 | 0.00 | 0.00 | 63 | 1014.6 |
| 20260504024930 | 18 | 349 | 0.0 | 0.0 | 0.00 | 0.00 | 0.00 | 62 | 1014.6 |
| 20260504023922 | 18 | 349 | 0.0 | 0.0 | 0.00 | 0.00 | 0.00 | 62 | 1014.5 |
| 20260504022850 | 18 | 349 | 0.0 | 0.0 | 0.00 | 0.00 | 0.00 | 62 | 1014.5 |
| 20260504021824 | 18 | 349 | 0.0 | 0.0 | 0.00 | 0.00 | 0.00 | 61 | 1014.6 |
| 20260504020844 | 19 | 349 | 0.0 | 0.0 | 0.00 | 0.00 | 0.00 | 59 | 1014.4 |
| 20260504015856 | 20 | 349 | 0.0 | 0.0 | 0.00 | 0.00 | 0.00 | 57 | 1014.3 |
| 20260504014909 | 20 | 349 | 0.0 | 0.0 | 0.00 | 0.00 | 0.00 | 55 | 1014.0 |
| 20260504012800 | 21 | 349 | 0.0 | 0.0 | 0.00 | 0.00 | 0.00 | 54 | 1013.9 |
| 20260504011732 | 21 | 349 | 0.0 | 0.0 | 0.00 | 0.00 | 0.00 | 53 | 1014.0 |
| 20260504005528 | 22 | 348 | 0.0 | 1.6 | 0.00 | 0.00 | 0.00 | 47 | 1013.8 |
| 20260504004546 | 23 | 333 | 0.0 | 3.2 | 0.00 | 0.00 | 0.00 | 45 | 1013.8 |
| 20260504003531 | 23 | 340 | 0.0 | 1.6 | 0.00 | 0.00 | 0.00 | 45 | 1013.8 |
| 20260504002543 | 23 | 11 | 0.0 | 1.6 | 0.00 | 0.00 | 0.00 | 46 | 1014.0 |
| 20260504001533 | 23 | 10 | 0.0 | 0.0 | 0.00 | 0.00 | 0.00 | 46 | 1014.1 |
| 20260504000505 | 23 | 351 | 0.0 | 1.6 | 0.00 | 0.00 | 0.00 | 44 | 1014.3 |
| 20260503235507 | 25 | 347 | 0.0 | 6.4 | 0.00 | 0.00 | 0.00 | 41 | 1014.5 |
| 20260503233349 | 24 | 14 | 0.0 | 14.5 | 0.00 | 0.00 | 0.00 | 41 | 1014.6 |
| 20260503232319 | 24 | 24 | 0.0 | 6.4 | 0.00 | 0.00 | 0.00 | 43 | 1014.6 |
| 20260503231250 | 25 | 342 | 0.0 | 16.1 | 0.00 | 0.00 | 0.00 | 41 | 1014.5 |
| 20260503230245 | 25 | 289 | 1.6 | 16.1 | 0.00 | 0.00 | 0.00 | 38 | 1014.5 |
| 20260503224121 | 26 | 26 | 3.2 | 16.1 | 0.00 | 0.00 | 0.00 | 37 | 1014.8 |
| 20260503215726 | 26 | 19 | 3.2 | 16.1 | 0.00 | 0.00 | 0.00 | 38 | 1015.3 |
| 20260503213627 | 26 | 16 | 3.2 | 16.1 | 0.00 | 0.00 | 0.00 | 39 | 1015.8 |
| 20260503212552 | 25 | 24 | 3.2 | 16.1 | 0.00 | 0.00 | 0.00 | 39 | 1015.7 |
| 20260503211615 | 25 | 30 | 3.2 | 17.7 | 0.00 | 0.00 | 0.00 | 40 | 1015.9 |
| 20260503204307 | 26 | 342 | 1.6 | 12.9 | 0.00 | 0.00 | 0.00 | 35 | 1016.5 |
| 20260503203304 | 26 | 11 | 1.6 | 6.4 | 0.00 | 0.00 | 0.00 | 37 | 1016.7 |
| 20260503202259 | 26 | 24 | 0.0 | 16.1 | 0.00 | 0.00 | 0.00 | 42 | 1017.0 |
| 20260503200113 | 26 | 311 | 1.6 | 14.5 | 0.00 | 0.00 | 0.00 | 38 | 1017.3 |
| 20260503195110 | 26 | 222 | 1.6 | 16.1 | 0.00 | 0.00 | 0.00 | 40 | 1017.5 |
| 20260503194048 | 26 | 17 | 1.6 | 16.1 | 0.00 | 0.00 | 0.00 | 39 | 1017.6 |
| 20260503193109 | 26 | 312 | 1.6 | 16.1 | 0.00 | 0.00 | 0.00 | 40 | 1017.7 |
| 20260503190940 | 26 | 294 | 1.6 | 14.5 | 0.00 | 0.00 | 0.00 | 37 | 1018.0 |
| 20260503185959 | 26 | 43 | 1.6 | 9.7 | 0.00 | 0.00 | 0.00 | 39 | 1018.1 |
| 20260503185006 | 25 | 300 | 1.6 | 9.7 | 0.00 | 0.00 | 0.00 | 36 | 1018.4 |
| 20260503183956 | 25 | 30 | 1.6 | 14.5 | 0.00 | 0.00 | 0.00 | 42 | 1018.6 |
| 20260503183002 | 25 | 36 | 1.6 | 14.5 | 0.00 | 0.00 | 0.00 | 41 | 1018.6 |
| 20260503182013 | 25 | 48 | 1.6 | 14.5 | 0.00 | 0.00 | 0.00 | 41 | 1018.8 |
| 20260503181015 | 25 | 57 | 1.6 | 12.9 | 0.00 | 0.00 | 0.00 | 43 | 1018.9 |
| 20260503174836 | 25 | 38 | 1.6 | 14.5 | 0.00 | 0.00 | 0.00 | 43 | 1019.6 |
| 20260503173815 | 24 | 57 | 1.6 | 9.7 | 0.00 | 0.00 | 0.00 | 45 | 1019.5 |
| 20260503172757 | 25 | 31 | 1.6 | 8.0 | 0.00 | 0.00 | 0.00 | 44 | 1019.6 |
| 20260503171753 | 25 | 325 | 0.0 | 14.5 | 0.00 | 0.00 | 0.00 | 43 | 1019.7 |
| 20260503170816 | 25 | 338 | 0.0 | 14.5 | 0.00 | 0.00 | 0.00 | 42 | 1019.8 |
| 20260503150240 | 21 | 32 | 1.6 | 8.0 | 0.00 | 0.03 | 0.00 | 54 | 1020.4 |
| 20260503110736 | 12 | 290 | 0.0 | 0.0 | 0.00 | 0.03 | 0.00 | 81 | 1019.2 |
| 20260503090402 | 13 | 290 | 0.0 | 0.0 | 0.00 | 0.03 | 0.00 | 76 | 1018.6 |
| 20260503072712 | 13 | 288 | 0.0 | 0.0 | 0.00 | 0.03 | 0.00 | 76 | 1018.8 |
| 20260503071707 | 13 | 288 | 0.0 | 0.0 | 0.00 | 0.03 | 0.00 | 76 | 1018.9 |
| 20260503070712 | 13 | 288 | 0.0 | 0.0 | 0.00 | 0.03 | 0.00 | 75 | 1019.0 |